Back to catalog

SKYNET 4B

AliveMilitaryGEO
NORAD 19687·PAYLOAD·🇬🇧 United Kingdom

Launched Dec 11, 1988 from Guiana Space Centre

Loading…

TLE

FreshSource: Space-Track

Epoch: Sep 14, 2026, 00:03 UTC

1 19687U 88109A   26257.00242309 -.00000213  00000-0  00000-0 0  9996
2 19687  13.0191 336.2687 0006137 277.5014  87.4525  0.99676566119057

Track SKYNET 4B in real time with AllMySat

Download on the App Store